Weather History for Goshen, IN

Change the Weather History Date:

Friday, February 8, 2013

  Actual Average Record
Temperature  
Mean Temperature 28 °F -  
Max Temperature 34 °F 31 °F 58 °F (1990)
Min Temperature 21 °F 13 °F -13 °F (1967)
Degree Days  
Heating Degree Days 36    
Moisture  
Dew Point 25 °F    
Average Humidity 78    
Maximum Humidity 93    
Minimum Humidity 64    
Precipitation  
Precipitation 0.00 in - - ()
Sea Level Pressure  
Sea Level Pressure 30.09 in    
Wind  
Wind Speed 11 mph (NNW)    
Max Wind Speed 21 mph    
Max Gust Speed 28 mph    
Visibility 7 miles    
Events      
Averages and records for this station are not official NWS values.
T = Trace of Precipitation, MM = Missing Value Source: NWS Daily Summary

Daily Weather History Graph

Daily Weather History Graph

Search for Another Location

Airport:

Trip Planner

Search our weather history database for the weather conditions in past years. The results will help you decide how hot, cold, wet, or windy it might be!

Date:

Astronomy

Feb. 08, 2013 Rise Set
Actual Time 7:46 AM EST 6:08 PM EST
Civil Twilight 7:18 AM EST 6:37 PM EST
Nautical Twilight 6:45 AM EST 7:09 PM EST
Astronomical Twilight 6:13 AM EST 7:42 PM EST
Moon 6:15 AM EST (2/8) 4:40 PM EST (2/8)
Length of Visible Light 11h 19m
Length of Day
10h 21m
Waning Crescent, 3% of the Moon is Illuminated
Feb 8
Waning Crescent
Feb 10
New
Feb 17
First Quarter
Feb 25
Full
Mar 4
Last Quarter

Hourly Weather History & Observations

Time (EST) Temp. Windchill Dew Point Humidity Pressure Visibility Wind Dir Wind Speed Gust Speed Precip Events Conditions
12:13 AM 33.8 °F 28.6 °F 30.2 °F 87% 29.78 in 2.0 mi North 5.8 mph - 0.00 in   Overcast
12:53 AM 33.1 °F 27.7 °F 30.9 °F 92% 29.82 in 2.0 mi North 5.8 mph - 0.00 in   Overcast
1:53 AM 33.1 °F 25.5 °F 30.9 °F 92% 29.82 in 2.0 mi NW 9.2 mph - N/A   Overcast
2:10 AM 33.8 °F 27.0 °F 30.2 °F 87% 29.81 in 1.8 mi NW 8.1 mph - N/A   Overcast
2:23 AM 33.8 °F 27.0 °F 30.2 °F 87% 29.81 in 2.0 mi WNW 8.1 mph - N/A   Overcast
2:26 AM 33.8 °F 27.7 °F 30.2 °F 87% 29.82 in 1.8 mi NW 6.9 mph - N/A   Overcast
2:53 AM 34.0 °F 26.6 °F 30.9 °F 89% 29.85 in 1.2 mi WNW 9.2 mph - N/A   Overcast
3:36 AM 33.8 °F 25.3 °F 32.0 °F 93% 29.83 in 0.8 mi NW 11.5 mph - N/A   Overcast
3:53 AM 33.1 °F 22.2 °F 30.9 °F 92% 29.86 in 0.8 mi NW 17.3 mph - N/A   Overcast
4:29 AM 33.8 °F 23.9 °F 30.2 °F 87% 29.85 in 2.5 mi NW 15.0 mph 21.9 mph N/A   Overcast
4:40 AM 33.8 °F 23.5 °F 30.2 °F 87% 29.86 in 3.0 mi NW 16.1 mph - N/A   Overcast
4:53 AM 33.1 °F 22.6 °F 30.0 °F 89% 29.89 in 4.0 mi NW 16.1 mph - N/A   Overcast
5:53 AM 33.1 °F 22.2 °F 28.0 °F 82% 29.94 in 6.0 mi NW 17.3 mph 26.5 mph N/A   Haze
7:15 AM 30.2 °F 18.5 °F 24.8 °F 80% 29.98 in 9.0 mi NNW 17.3 mph 27.6 mph N/A   Overcast
7:53 AM 30.0 °F 18.3 °F 24.1 °F 79% 30.03 in 9.0 mi NNW 17.3 mph - N/A   Overcast
8:53 AM 30.0 °F 19.1 °F 24.1 °F 79% 30.07 in 10.0 mi NNW 15.0 mph 23.0 mph N/A   Overcast
9:53 AM 30.9 °F 18.4 °F 24.1 °F 76% 30.11 in 10.0 mi North 20.7 mph - N/A   Overcast
10:02 AM 30.2 °F 19.3 °F 24.8 °F 80% 30.09 in 10.0 mi NNW 15.0 mph - N/A   Overcast
10:23 AM 30.2 °F 18.9 °F 24.8 °F 80% 30.10 in 10.0 mi North 16.1 mph 24.2 mph N/A   Overcast
10:53 AM 30.9 °F 20.2 °F 24.1 °F 76% 30.15 in 10.0 mi NNW 15.0 mph - N/A   Overcast
11:25 AM 30.2 °F 20.8 °F 24.8 °F 80% 30.13 in 10.0 mi NNW 11.5 mph - N/A   Overcast
11:53 AM 30.0 °F 18.7 °F 24.1 °F 79% 30.18 in 10.0 mi NNW 16.1 mph - N/A   Overcast
12:53 PM 30.0 °F 18.7 °F 23.0 °F 75% 30.19 in 10.0 mi NNW 16.1 mph 23.0 mph N/A   Overcast
1:53 PM 30.0 °F 19.5 °F 23.0 °F 75% 30.20 in 10.0 mi NNW 13.8 mph 21.9 mph N/A   Overcast
2:53 PM 30.9 °F 20.7 °F 23.0 °F 72% 30.22 in 10.0 mi NNW 13.8 mph - N/A   Overcast
3:19 PM 30.2 °F 20.2 °F 21.2 °F 69% 30.19 in 10.0 mi NNW 12.7 mph - N/A   Scattered Clouds
3:28 PM 30.2 °F 19.3 °F 21.2 °F 69% 30.20 in 10.0 mi NNW 15.0 mph 21.9 mph N/A   Mostly Cloudy
3:36 PM 30.2 °F 19.8 °F 21.2 °F 69% 30.20 in 10.0 mi NNW 13.8 mph - N/A   Scattered Clouds
3:53 PM 30.9 °F 22.8 °F 21.9 °F 69% 30.24 in 10.0 mi NNW 9.2 mph 18.4 mph N/A   Scattered Clouds
4:03 PM 30.2 °F 19.8 °F 21.2 °F 69% 30.22 in 10.0 mi NW 13.8 mph - N/A   Mostly Cloudy
4:53 PM 30.9 °F 21.7 °F 21.0 °F 67% 30.26 in 10.0 mi North 11.5 mph - N/A   Mostly Cloudy
5:53 PM 30.9 °F 21.2 °F 21.0 °F 67% 30.28 in 10.0 mi NNW 12.7 mph - N/A   Overcast
7:12 PM 30.2 °F 24.3 °F 21.2 °F 69% 30.28 in 10.0 mi NNW 5.8 mph - N/A   Overcast
7:50 PM 30.2 °F 25.4 °F 21.2 °F 69% 30.30 in 10.0 mi NNW 4.6 mph - N/A   Overcast
7:53 PM 30.0 °F 25.2 °F 21.0 °F 69% 30.33 in 10.0 mi NNW 4.6 mph - N/A   Overcast
8:53 PM 30.0 °F 23.2 °F 19.0 °F 64% 30.35 in 10.0 mi NNW 6.9 mph - N/A   Overcast
9:53 PM 28.0 °F 22.8 °F 18.0 °F 66% 30.36 in 10.0 mi NW 4.6 mph - N/A   Scattered Clouds
10:53 PM 23.0 °F - 16.0 °F 74% 30.37 in 10.0 mi Calm Calm - N/A   Clear
11:53 PM 21.9 °F 17.2 °F 17.1 °F 82% 30.37 in 10.0 mi North 3.5 mph - N/A   Clear